Location: Lanoux
(43.1180°N, 1.4255°E)
Time: 14:32:18
(UTC+00:00)

ARIANE 6 FM1 Upper Stage - Pass Details

Date: 19 February 2026
Orbit: 523 x 607 km, 62.0° (Epoch: 6 March)

Event Time Altitude Azimuth Distance (km) Brightness Sun altitude
Rises 19:16:32 0° 312° (NW) 2,657 6.9 -20.0°
Reaches altitude 10° 19:18:54 10° 301° (WNW) 1,767 6.1 -20.4°
Maximum altitude 19:22:21 29° 240° (WSW) 987 4.4 -21.1°
Drops below altitude 10° 19:25:49 10° 180° (S) 1,776 5.1 -21.7°
Enters shadow 19:25:58 - 179° (S) 1,834 5.2 -21.7°
